Location: Saratoga Springs
(43.0831°N, 73.7850°W)
Time: 12:42:19
(UTC-04:00)

Vanguard 3 - Pass Details

Date: 29 April 2024
Orbit: 509 x 3233 km, 33.3° (Epoch: 23 May)

Event Time Altitude Azimuth Distance (km) Brightness Sun altitude
Exits shadow 23:20:16 17° 110° (ESE) 5,396 10.9 -28.3°
Drops below altitude 10° 23:24:52 10° 96° (E) 5,810 11.2 -28.6°
Sets 23:30:23 0° 84° (E) 6,512 11.6 -29.0°
